This demonstration page uses our WeatherBlox Daily Observations layout. Learn more.

Left ArrowRight Arrow

Hourly Observations for February 4, 2020

Temp ( °F °C ) Dew Point ( °F °C ) Humidity (%) Winds ( mph kmh ) Pressure ( in mb ) Visibility ( mi km ) Precip ( " mm )
12:53 am 00:53 Partly Cloudy 10 -12.2 7 -13.9 87 87 Calm 30.31 1027 10 16 0.00 0.00
1:53 am 01:53 Clear 9 -12.8 5 -15 84 84 SW 6 9 30.31 1026 10 16 0.00 0.00
2:42 am 02:42 Partly Cloudy 9 -12.8 5 -15 84 84 SSW 8 13 30.44 1031 10 16 0.00 0.00
2:51 am 02:51 Mostly Cloudy 10 -12 7 -14 85 85 SW 6 9 30.43 1030 10 16 0.00 0.00
2:53 am 02:53 Mostly Cloudy 10 -12.2 6 -14.4 84 84 SW 6 9 30.32 1027 10 16 0.00 0.00
3:24 am 03:24 Partly Cloudy 10 -12 7 -14 85 85 SW 9 15 30.43 1030 10 16 0.00 0.00
3:31 am 03:31 Mostly Cloudy 11 -11.7 7 -13.9 84 84 SW 8 13 30.42 1030 10 16 0.00 0.00
3:53 am 03:53 Cloudy 13 -10.6 10 -12.2 88 88 SW 8 13 30.30 1026 10 16 0.00 0.00
4:13 am 04:13 Partly Cloudy 11 -11.7 8 -13.3 88 88 SW 6 9 30.40 1030 10 16 0.00 0.00
4:53 am 04:53 Partly Cloudy 11 -11.7 7 -13.9 84 84 SW 3 6 30.29 1026 10 16 0.00 0.00
5:53 am 05:53 Clear 9 -12.8 6 -14.4 88 88 WSW 3 6 30.29 1026 10 16 0.00 0.00
6:53 am 06:53 Clear 9 -12.8 6 -14.4 88 88 Calm 30.27 1025 10 16 0.00 0.00
7:53 am 07:53 Sunny 9 -12.8 5 -15 84 84 E 6 9 30.25 1024 10 16 0.00 0.00
8:53 am 08:53 Sunny 12 -11.1 9 -12.8 87 87 Calm 30.24 1024 10 16 0.00 0.00
9:53 am 09:53 Sunny 18 -7.8 14 -10 84 84 SSW 3 6 30.21 1023 10 16 0.00 0.00
10:53 am 10:53 Sunny 26 -3.3 15 -9.4 63 63 SW 23 37 30.17 1022 10 16 0.00 0.00
11:53 am 11:53 Sunny 28 -2.2 15 -9.4 58 58 SW 23 37 30.12 1020 10 16 0.00 0.00
12:53 pm 12:53 Sunny 31 -0.6 14 -10 49 49 SW 22 35 30.07 1018 10 16 0.00 0.00
1:53 pm 13:53 Sunny 34 1.1 11 -11.7 38 38 WSW 22 35 30.01 1016 10 16 0.00 0.00
2:53 pm 14:53 Sunny 36 2.2 8 -13.3 31 31 WSW 23 37 29.98 1015 10 16 0.00 0.00
3:53 pm 15:53 Sunny 37 2.8 9 -12.8 31 31 WSW 18 30 29.94 1014 10 16 0.00 0.00
4:53 pm 16:53 Sunny 33 0.6 10 -12.2 38 38 WSW 12 19 29.91 1013 10 16 0.00 0.00
5:53 pm 17:53 Clear 28 -2.2 14 -10 56 56 SW 10 17 29.90 1013 10 16 0.00 0.00
6:53 pm 18:53 Mostly Cloudy 29 -1.7 15 -9.4 56 56 WSW 12 19 29.88 1012 10 16 0.00 0.00
7:53 pm 19:53 Cloudy 32 0 15 -9.4 50 50 WSW 20 31 29.87 1012 10 16 0.00 0.00
8:53 pm 20:53 Cloudy 31 -0.6 14 -10 49 49 W 20 31 29.88 1012 10 16 0.00 0.00
9:53 pm 21:53 Cloudy 31 -0.6 13 -10.6 47 47 W 21 33 29.86 1011 10 16 0.00 0.00
10:53 pm 22:53 Cloudy 30 -1.1 14 -10 51 51 WSW 21 33 29.84 1011 10 16 0.00 0.00
11:53 pm 23:53 Cloudy 30 -1.1 15 -9.4 54 54 WSW 21 33 29.84 1011 10 16 0.00 0.00

Powered by AerisWeather